Location: Bun
(42.9667°N, 0.1500°W)
Time: 18:52:02
(UTC+00:00)

Daily predictions for brighter satellites

Satellite Brightness Start Highest point End
(mag) Time Altitude Azimuth Time Altitude Azimuth Time Altitude Azimuth
BREEZE-M DEB (TANK) 1.4 20:13:00 10° SW 20:15:14 45° SE 20:18:06 10° ENE
DNEPR-1 R/B 4.0 20:12:35 10° NNW 20:16:43 51° NE 20:21:06 10° SE
Meteor 1-16 Rocket 4.2 20:11:53 10° N 20:17:15 66° ENE 20:22:30 10° SSE
Cosmos 2278 Rocket 3.9 20:14:06 10° N 20:18:13 20° NE 20:22:20 10° E
Ariane Rocket 3.1 20:14:46 10° SSE 20:19:52 87° WSW 20:25:01 10° NNW
Cosmos 2322 3.8 20:14:23 10° S 20:19:54 59° ESE 20:25:28 10° NNE
Terra 4.0 20:19:10 10° ENE 20:20:43 11° ENE 20:22:14 10° NE
SPOT 1/Viking Rocket 4.4 20:17:11 10° SE 20:21:50 36° ENE 20:26:30 10° N
ATLAS CENTAUR R/B 1.6 20:17:48 10° NNW 20:22:13 81° ENE 20:26:52 10° SE
Cosmos 1900 4.4 20:18:41 10° NNW 20:23:36 83° WSW 20:28:27 10° SSE
Cosmos 1975 Rocket 3.1 20:19:56 10° S 20:24:18 87° W 20:28:45 10° N
In-Cosmos 22 4.5 20:19:47 10° SSW 20:25:01 70° WNW 20:30:21 10° N
COSMOS 2428 3.1 20:20:56 10° S 20:26:20 45° ESE 20:31:48 10° NE
Cosmos 968 Rocket 4.5 20:24:38 10° N 20:29:15 33° ENE 20:33:52 10° SE
Cosmos 1461 4.4 20:28:25 10° NW 20:32:01 29° WSW 20:35:29 10° S
Cosmos 1953 2.3 20:28:05 10° N 20:32:11 88° E 20:36:13 10° S
Cosmos 1727 Rocket 4.4 20:27:25 10° SSW 20:33:41 68° W 20:39:56 10° N
IGS 5A 3.4 20:30:44 10° SSE 20:34:52 77° ENE 20:39:04 10° N
ATLAS 3B R/B 2.7 20:30:09 10° SW 20:36:41 88° WNW 20:43:28 10° NE
Cosmos 1908 3.2 20:34:02 10° N 20:37:54 86° W 20:41:43 10° S
Cosmos 1459 Rocket 4.0 20:39:43 10° N 20:45:49 87° E 20:51:56 10° S
SPOT 5 4.1 20:43:25 11° ESE 20:47:19 28° ENE 20:51:20 10° N
Landsat 7 3.8 20:42:44 10° SSE 20:47:30 90° NNE 20:52:17 10° NNW
OBJECT-B 3.8 20:49:52 10° WSW 20:51:08 12° W 20:52:23 10° WNW
SPOT 3 Rocket 3.6 20:46:48 10° SSE 20:51:58 85° WSW 20:57:13 10° NNW
ATLAS 2A CENTAUR R/B 4.0 20:43:34 10° SW 20:57:47 25° S 21:02:14 15° SSE
Cosmos 2219 Rocket 2.3 20:53:31 10° SSW 20:59:11 81° WNW 21:04:54 10° NNE
Resurs 01 Rocket 2.3 20:56:35 10° S 21:00:53 53° W 21:05:13 10° NNW
Cosmos 1802 Rocket 4.1 20:55:15 10° N 21:01:37 88° WSW 21:08:01 10° S
Cosmos 1867 3.7 20:56:30 10° NNW 21:02:00 69° NE 21:06:16 17° SE
Cosmos 1544 Rocket 3.9 21:01:44 10° NNW 21:06:09 65° W 21:10:30 10° S
ERS-1 Rocket 3.6 21:03:38 16° SE 21:07:17 43° ENE 21:12:02 10° N
Cosmos 405 2.9 21:05:34 10° NNW 21:09:02 83° WSW 21:11:33 17° S
X-37B 0.5 21:07:54 10° WSW 21:11:02 62° SSE 21:14:11 10° ENE
Cosmos 1346 Rocket 3.3 21:14:20 21° SSE 21:16:36 41° E 21:20:24 10° NNE
Cosmos 2333 Rocket 3.2 21:11:55 10° SW 21:17:30 51° WNW 21:23:04 10° NNE
Cosmos 1025 Rocket 4.4 21:16:41 10° SSW 21:20:46 39° WNW 21:24:53 10° N
Cosmos 1455 4.0 21:18:40 10° NNE 21:21:21 18° ENE 21:22:38 16° E
Spot 2 Rocket 3.5 21:19:22 18° SSE 21:23:13 89° ENE 21:28:20 10° NNW
JB-3 4.4 21:20:46 10° N 21:24:49 82° WNW 21:28:47 11° SSW
Cosmos 2228 3.6 21:20:36 10° N 21:24:49 44° ENE 21:27:02 24° SE
H-2A R/B 4.5 21:22:01 10° NE 21:25:34 28° E 21:26:46 24° SE
CZ-2C R/B 4.4 21:21:00 10° N 21:25:42 59° WNW 21:30:21 10° SSW
Cosmos 2237 Rocket 2.4 21:21:26 12° S 21:26:31 51° ESE 21:31:56 10° NE
Cosmos 1340 4.1 21:23:59 10° SW 21:27:29 37° WNW 21:31:02 10° N
SL-16 R/B 3.7 21:26:40 17° ESE 21:27:47 18° E 21:31:28 10° ENE
SL-4 R/B 2.9 21:25:38 10° WSW 21:29:49 51° NNW 21:33:42 10° NE
Cosmos 2123 Rocket 4.4 21:26:50 10° SSW 21:33:04 65° W 21:39:24 10° N
Cosmos 2233 Rocket 4.0 21:27:51 10° N 21:34:04 78° E 21:38:24 21° SSE
Cosmos 1607 4.2 21:28:07 10° NNW 21:34:30 65° NE 21:38:39 22° SE
Cosmos 1300 3.2 21:31:03 10° NNW 21:34:47 55° W 21:37:14 20° SSW
ARIANE 5 R/B 2.7 21:33:34 22° S 21:36:27 76° WSW 21:40:59 10° NNW
DELTA 2 R/B (1) 4.4 21:35:40 10° SSW 21:40:17 27° SSE 21:41:38 25° SE
Meteor 2-5 Rocket 4.2 21:37:50 10° SSW 21:43:18 62° WNW 21:48:56 10° N
Lacrosse 5 rocket 4.5 21:42:07 10° NW 21:43:21 11° NNW 21:44:36 10° N
Cosmos 1447 Rocket 4.4 21:39:00 18° S 21:43:41 74° E 21:49:50 10° NNE
Meteor 2-10 Rocket 3.4 21:39:54 10° N 21:44:57 83° E 21:47:42 27° SSE
CARTOSAT-1 4.2 21:46:43 20° SSW 21:49:25 49° W 21:53:38 10° NNW
ATLAS CENTAUR R/B 3.0 21:52:00 28° S 21:54:02 47° ESE 22:02:52 10° NE
Cosmos 1503 Rocket 4.0 21:49:00 10° NNW 21:54:24 78° ENE 21:57:02 31° SSE
Terra 1.8 21:55:24 31° SSE 21:57:42 90° SSE 22:02:30 10° NNW
Meteor 1-24 Rocket 4.2 21:53:31 10° SSW 21:58:47 55° WNW 22:04:16 10° N
ATLAS CENTAUR R/B 4.1 21:58:49 10° W 22:00:34 12° WSW 22:02:19 10° SW
CZ-4B DEB 4.1 22:00:18 61° SSE 22:00:46 84° ENE 22:03:57 10° N
Cosmos 2278 Rocket 2.3 21:57:14 10° NNW 22:02:54 73° WSW 22:05:45 30° S
Cosmos 1943 Rocket 3.6 22:04:53 10° N 22:09:35 28° NE 22:12:41 17° E
Cosmos 192 4.3 22:11:59 24° SSW 22:15:00 84° WNW 22:19:57 10° NNE
Cosmos 389 Rocket 3.6 22:15:01 10° NNW 22:18:12 36° W 22:19:05 30° SW
Cosmos 1184 Rocket 2.6 22:20:41 77° SW 22:20:51 82° WNW 22:24:06 10° N
SPOT 5 4.1 22:22:39 21° SSW 22:25:15 35° W 22:29:39 10° NNW
Cosmos 1464 Rocket 4.0 22:23:28 10° N 22:29:53 78° E 22:32:40 36° SSE
Cosmos 1726 Rocket 4.0 22:26:46 10° NNW 22:31:07 55° W 22:32:32 37° SSW
USA 229 DEB 4.0 22:30:08 35° SE 22:31:34 39° ESE 22:37:42 10° NE
Cosmos 1441 Rocket 3.0 22:31:15 69° SSE 22:31:39 81° E 22:35:27 10° NNE
USA 229 4.0 22:30:17 35° SE 22:31:41 39° ESE 22:37:48 10° NE
Cosmos 1777 Rocket 4.0 22:28:56 10° NNW 22:34:15 73° ENE 22:35:58 43° SE
Iridium 2 4.3 22:36:16 39° SW 22:37:09 48° W 22:40:48 10° N
SJ 16-02 2.2 22:33:17 10° N 22:37:23 37° ENE 22:38:21 33° E
NOSS 3-1 (C) 3.1 22:35:28 38° S 22:37:26 65° ESE 22:43:26 10° NE
Cosmos 2058 Rocket 3.1 22:38:06 10° NNW 22:42:30 70° W 22:43:26 52° SSW
Okean 1-7 Rocket 3.5 22:42:02 53° SSW 22:43:03 86° W 22:47:30 10° N
X-37B 1.2 22:44:36 10° W 22:47:30 55° NNW 22:47:30 55° NNW
NOSS 2-3 (E) 3.4 22:49:23 64° SE 22:49:29 65° ESE 22:54:03 10° NE
NOSS 3-1 (A) 3.4 22:50:45 44° SE 22:51:24 46° ESE 22:57:07 10° NE
Meteor 1-21 Rocket 4.4 22:49:05 34° SSW 22:51:39 71° W 22:57:26 10° N
USA 215 3.4 22:50:36 10° ENE 22:56:54 49° SE 22:58:45 39° S
Cosmos 1455 3.5 22:53:40 10° NNW 22:56:59 29° W 22:57:31 28° WSW
Cosmos 1703 4.0 23:02:32 40° WSW 23:03:14 45° WNW 23:07:04 10° N
Cosmos 2034 Rocket 4.0 23:02:32 10° N 23:08:43 77° W 23:10:49 43° S
Meteor 1-4 Rocket 2.8 23:05:33 10° NNW 23:08:33 60° NW 23:08:33 60° NW
Spot 4 3.7 23:09:05 61° S 23:09:55 85° WSW 23:14:44 10° NNW
SL-4 R/B 4.4 23:06:43 10° WNW 23:10:01 23° N 23:13:07 10° NE
Cosmos 2237 Rocket 4.1 23:06:10 10° WSW 23:10:50 26° NW 23:15:32 10° N
SL-16 R/B 2.4 23:08:29 30° SW 23:11:17 67° WNW 23:16:57 10° NNE
GP-B 3.8 23:10:37 10° NNE 23:14:49 40° E 23:15:02 40° E
Cosmos 1626 Rocket 3.9 23:18:01 50° WSW 23:18:46 58° W 23:23:09 10° N
Cosmos 2369 Rocket 2.8 23:14:01 10° NNW 23:19:35 49° ENE 23:21:44 33° ESE
USA 308 4.5 23:22:32 24° E 23:22:32 24° E 23:24:31 10° ENE
ALOS 2 2.5 23:21:22 67° ESE 23:21:46 73° ENE 23:26:09 10° N
Cosmos-2242 3.4 23:18:28 10° N 23:22:46 50° ENE 23:23:04 49° E
Cosmos 1602 Rocket 3.7 23:28:09 58° WSW 23:28:43 64° W 23:33:11 10° N
Cosmos 468 Rocket 4.1 23:29:10 54° SE 23:29:41 56° ESE 23:34:48 10° NNE
USA 267 4.3 23:23:52 10° E 23:29:56 42° NNE 23:36:00 10° NW
NOSS 2-3 (D) 4.0 23:29:39 43° WSW 23:30:44 58° NW 23:35:22 10° NNE
USA 305 3.7 23:36:40 38° E 23:36:40 38° E 23:39:34 10° ENE
Cosmos 1763 Rocket 3.4 23:35:39 59° SE 23:36:09 63° ESE 23:41:15 10° NNE
Cosmos 1758 Rocket 3.4 23:37:04 81° SSW 23:37:16 87° W 23:41:41 10° N
Tsikada Rocket 4.3 23:39:32 38° SW 23:41:48 59° W 23:47:54 10° N
Cosmos 1408 3.5 23:42:43 43° ENE 23:42:43 43° ENE 23:45:39 10° NNE
Cosmos 2221 4.1 23:48:55 10° NNE 23:52:25 24° ENE 23:53:10 23° E
Cosmos 1943 Rocket 2.5 23:48:16 10° NW 23:53:30 46° WSW 23:54:11 44° SW
Cosmos 2297 4.4 23:49:02 10° NW 23:54:10 37° WSW 23:54:53 35° WSW
